M I D A S
Marine Information and Data Acquisition System
Tripno 2060 of the Zeeleeuw from 2011-03-17 07:15:59 to 2011-03-17 18:06:09
Back to CruiseResearch ActivitiesStationsMapUnderway DataData graphs

EquipmentUnitsComments
TimeDGPSUTC
LatitudeDGPSDM.mWGS84
LongitudeDGPSDM.mWGS84
SpeedMeteo Stationm/sRelative wind speed
DirectionMeteo StationdegRelative wind direction
TemperatureMeteo Stationdeg CelciusAir temperature
PressureMeteo StationPaAtmospheric pressure
HumidityMeteo Station%Relative humidity
Missing or incorrect values are displayed as -999
Metereological data collected by the RV Zeeleeuw from 2011-03-17 07:05:48 to 2011-03-17 18:13:10
                                                                                    Next 1000 lines
Time Latitude Longitude Speed Direction Temperature Pressure Humidity
2011-03-17 07:05:58 51°13.662 2°55.96 0.1 260 -999 -999 -999
2011-03-17 07:06:03 51°13.662 2°55.96 0.9 279 -999 -999 -999
2011-03-17 07:06:08 51°13.662 2°55.961 0.6 265 4.8 -999 31
2011-03-17 07:06:13 51°13.662 2°55.961 1.9 277 4.8 -999 31
2011-03-17 07:06:18 51°13.661 2°55.961 0.2 29 4.9 -999 49
2011-03-17 07:06:23 51°13.662 2°55.961 0.1 77 4.9 -999 49
2011-03-17 07:06:28 51°13.662 2°55.961 2.7 268 4.9 101120 47
2011-03-17 07:06:33 51°13.662 2°55.961 1 82 4.9 101120 47
2011-03-17 07:06:38 51°13.662 2°55.961 0.2 260 4.9 101120 47
2011-03-17 07:06:42 51°13.662 2°55.961 0.2 78 4.9 101120 47
2011-03-17 07:06:48 51°13.662 2°55.96 0.1 259 4.9 101120 49
2011-03-17 07:06:53 51°13.662 2°55.96 0.1 283 4.9 101120 49
2011-03-17 07:06:58 51°13.662 2°55.96 -999 243 4.9 101110 47
2011-03-17 07:07:03 51°13.662 2°55.96 -999 283 4.9 101110 47
2011-03-17 07:07:08 51°13.662 2°55.96 -999 26 4.9 101120 47
2011-03-17 07:07:13 51°13.662 2°55.96 -999 287 4.9 101120 47
2011-03-17 07:07:18 51°13.662 2°55.96 0.1 19 4.9 101120 47
2011-03-17 07:07:23 51°13.662 2°55.96 0.1 283 4.9 101120 47
2011-03-17 07:07:28 51°13.662 2°55.96 0.1 262 4.9 101120 47
2011-03-17 07:07:33 51°13.662 2°55.96 -999 78 4.9 101120 47
2011-03-17 07:07:38 51°13.662 2°55.96 -999 35 4.9 101120 47
2011-03-17 07:07:43 51°13.662 2°55.96 -999 77 4.9 101120 47
2011-03-17 07:07:48 51°13.662 2°55.96 -999 257 4.9 101110 47
2011-03-17 07:07:53 51°13.662 2°55.96 0.1 287 4.9 101110 47
2011-03-17 07:07:58 51°13.662 2°55.96 0.4 254 4.9 101110 46
2011-03-17 07:08:03 51°13.662 2°55.96 0.1 287 4.9 101110 46
2011-03-17 07:08:07 51°13.662 2°55.96 1.1 255 4.9 101110 47
2011-03-17 07:08:13 51°13.662 2°55.96 1.1 284 4.9 101110 47
2011-03-17 07:08:18 51°13.662 2°55.96 0.2 268 4.9 101120 47
2011-03-17 07:08:23 51°13.662 2°55.96 1.9 287 4.9 101120 47
2011-03-17 07:08:28 51°13.662 2°55.96 0.7 37 4.9 101110 49
2011-03-17 07:08:34 51°13.663 2°55.959 2.7 288 4.9 101110 49
2011-03-17 07:08:38 51°13.663 2°55.959 1.8 25 4.9 101110 49
2011-03-17 07:08:43 51°13.663 2°55.959 0.7 74 4.9 101110 49
2011-03-17 07:08:48 51°13.663 2°55.959 0.2 35 4.9 101110 46
2011-03-17 07:08:53 51°13.663 2°55.959 0.9 283 4.9 101110 46
2011-03-17 07:08:58 51°13.663 2°55.959 2.5 267 4.9 101120 48
2011-03-17 07:09:03 51°13.663 2°55.959 1.2 283 4.9 101120 48
2011-03-17 07:09:08 51°13.663 2°55.959 0.2 269 4.9 101120 47
2011-03-17 07:09:13 51°13.662 2°55.959 1.6 280 4.9 101120 47
2011-03-17 07:09:18 51°13.662 2°55.959 1.1 270 4.9 101120 46
2011-03-17 07:09:24 51°13.662 2°55.96 1.8 285 4.9 101120 46
2011-03-17 07:09:28 51°13.662 2°55.96 3.6 31 4.9 101120 49
2011-03-17 07:09:32 51°13.662 2°55.96 2.9 285 4.9 101120 49
2011-03-17 07:09:38 51°13.662 2°55.96 1.5 262 4.9 101110 49
2011-03-17 07:09:43 51°13.662 2°55.96 0.2 282 4.9 101110 49
2011-03-17 07:09:48 51°13.662 2°55.96 0.1 25 4.9 101120 48
2011-03-17 07:09:53 51°13.662 2°55.96 1.2 287 4.9 101120 48
2011-03-17 07:09:58 51°13.662 2°55.96 1.6 35 4.9 101120 47
2011-03-17 07:10:03 51°13.662 2°55.959 1.9 81 4.9 101120 47
2011-03-17 07:10:08 51°13.662 2°55.959 1.4 29 4.9 101110 45
2011-03-17 07:10:13 51°13.662 2°55.959 0.9 77 4.9 101110 45
2011-03-17 07:10:18 51°13.662 2°55.959 1.5 269 4.9 101120 45
2011-03-17 07:10:23 51°13.662 2°55.959 3.4 77 4.9 101120 45
2011-03-17 07:10:28 51°13.662 2°55.959 2.8 22 4.9 101110 46
2011-03-17 07:10:33 51°13.662 2°55.959 3.4 77 4.9 101110 46
2011-03-17 07:10:38 51°13.662 2°55.959 2.7 34 4.8 101120 44
2011-03-17 07:10:43 51°13.662 2°55.96 4.1 76 4.8 101120 44
2011-03-17 07:10:48 51°13.662 2°55.96 2.8 34 4.9 101120 46
2011-03-17 07:10:52 51°13.662 2°55.96 0.6 80 4.9 101120 46
2011-03-17 07:10:57 51°13.662 2°55.959 1.7 267 4.9 101120 49
2011-03-17 07:11:02 51°13.662 2°55.96 1.5 76 4.9 101120 49
2011-03-17 07:11:08 51°13.662 2°55.959 0.3 36 4.9 101120 45
2011-03-17 07:11:14 51°13.662 2°55.959 3.3 74 4.9 101120 45
2011-03-17 07:11:18 51°13.662 2°55.959 4.8 37 4.9 101120 45
2011-03-17 07:11:24 51°13.662 2°55.959 0.4 287 4.9 101120 45
2011-03-17 07:11:28 51°13.662 2°55.959 2.4 262 4.9 101120 49
2011-03-17 07:11:33 51°13.662 2°55.96 3.4 282 4.9 101120 49
2011-03-17 07:11:37 51°13.662 2°55.959 1 265 4.9 101120 44
2011-03-17 07:11:43 51°13.662 2°55.96 2.7 280 4.9 101120 44
2011-03-17 07:11:48 51°13.662 2°55.96 2.3 265 4.9 101120 49
2011-03-17 07:11:53 51°13.662 2°55.96 1.2 281 4.9 101120 49
2011-03-17 07:11:58 51°13.662 2°55.96 0.5 264 4.9 101120 47
2011-03-17 07:12:04 51°13.662 2°55.96 0.3 283 4.9 101120 47
2011-03-17 07:12:08 51°13.662 2°55.96 0.8 269 4.9 101120 46
2011-03-17 07:12:14 51°13.662 2°55.96 0.6 280 4.9 101120 46
2011-03-17 07:12:17 51°13.662 2°55.96 0.5 260 4.9 101110 49
2011-03-17 07:12:22 51°13.662 2°55.96 0.2 283 4.9 101110 49
2011-03-17 07:12:28 51°13.662 2°55.96 0.1 40 4.9 101120 47
2011-03-17 07:12:34 51°13.662 2°55.96 0.1 78 4.9 101120 47
2011-03-17 07:12:38 51°13.662 2°55.96 0.1 270 4.9 101120 44
2011-03-17 07:12:43 51°13.662 2°55.96 0.7 287 4.9 101120 44
2011-03-17 07:12:48 51°13.662 2°55.96 0.9 269 4.9 101110 47
2011-03-17 07:12:54 51°13.662 2°55.96 0.2 285 4.9 101110 47
2011-03-17 07:12:58 51°13.662 2°55.96 0.3 34 4.9 101120 47
2011-03-17 07:13:03 51°13.662 2°55.96 0.2 283 4.9 101120 47
2011-03-17 07:13:08 51°13.662 2°55.96 0.5 36 4.9 101120 47
2011-03-17 07:13:14 51°13.662 2°55.96 0.6 83 4.9 101120 47
2011-03-17 07:13:18 51°13.662 2°55.96 0.8 24 4.9 101120 46
2011-03-17 07:13:23 51°13.662 2°55.96 0.2 78 4.9 101120 46
2011-03-17 07:13:28 51°13.662 2°55.96 0.1 32 4.9 101120 47
2011-03-17 07:13:33 51°13.662 2°55.96 0.1 77 4.9 101120 47
2011-03-17 07:13:38 51°13.662 2°55.96 2.3 267 4.9 101120 47
2011-03-17 07:13:43 51°13.662 2°55.96 0.8 81 4.9 101120 47
2011-03-17 07:13:48 51°13.662 2°55.96 0.6 270 4.9 101120 47
2011-03-17 07:13:54 51°13.662 2°55.96 0.2 283 4.9 101120 47
2011-03-17 07:13:58 51°13.662 2°55.96 1.4 270 4.9 101110 47
2011-03-17 07:14:04 51°13.662 2°55.96 0.5 82 4.9 101110 47
2011-03-17 07:14:08 51°13.662 2°55.96 1.4 31 4.9 101120 47
2011-03-17 07:14:14 51°13.662 2°55.96 3.9 80 4.9 101120 47
2011-03-17 07:14:18 51°13.662 2°55.96 2.7 270 4.9 101120 45
2011-03-17 07:14:24 51°13.662 2°55.96 3.3 76 4.9 101120 45
2011-03-17 07:14:29 51°13.662 2°55.96 1.8 33 4.9 101120 46
2011-03-17 07:14:33 51°13.662 2°55.96 1.4 288 4.9 101120 46
2011-03-17 07:14:38 51°13.662 2°55.96 2.2 32 4.9 101120 46
2011-03-17 07:14:43 51°13.662 2°55.96 1.6 283 4.9 101120 46
2011-03-17 07:14:48 51°13.662 2°55.96 0.7 267 4.9 101110 50
2011-03-17 07:14:54 51°13.662 2°55.96 0.2 86 4.9 101110 50
2011-03-17 07:14:58 51°13.662 2°55.96 0.1 263 4.9 101120 46
2011-03-17 07:15:03 51°13.662 2°55.96 2.4 287 4.9 101120 46
2011-03-17 07:15:08 51°13.662 2°55.96 0.7 33 4.9 101120 47
2011-03-17 07:15:14 51°13.662 2°55.96 3.2 77 4.9 101120 47
2011-03-17 07:15:18 51°13.662 2°55.96 2.2 269 4.9 101110 46
2011-03-17 07:15:23 51°13.662 2°55.96 1.3 278 4.9 101110 46
2011-03-17 07:15:28 51°13.662 2°55.96 3.4 11 4.9 101120 49
2011-03-17 07:15:34 51°13.662 2°55.96 0.8 283 4.9 101120 49
2011-03-17 07:15:38 51°13.662 2°55.959 2.4 256 4.9 101120 49
2011-03-17 07:15:43 51°13.662 2°55.96 0.2 77 4.9 101120 49
2011-03-17 07:15:48 51°13.662 2°55.96 0.1 35 4.9 101120 47
2011-03-17 07:15:53 51°13.662 2°55.96 -999 286 4.9 101120 47
2011-03-17 07:15:58 51°13.662 2°55.96 0.3 26 4.9 101120 48
2011-03-17 07:16:03 51°13.662 2°55.96 0.3 278 4.9 101120 48
2011-03-17 07:16:08 51°13.662 2°55.96 0.2 262 4.9 101110 47
2011-03-17 07:16:13 51°13.662 2°55.96 3.7 284 4.9 101110 47
2011-03-17 07:16:18 51°13.662 2°55.96 4.6 270 4.9 101120 46
2011-03-17 07:16:23 51°13.662 2°55.96 4 75 4.9 101120 46
2011-03-17 07:16:29 51°13.662 2°55.96 2.5 249 4.9 101120 49
2011-03-17 07:16:34 51°13.662 2°55.96 1.8 289 4.9 101120 49
2011-03-17 07:16:38 51°13.662 2°55.96 4.3 268 4.9 101120 49
2011-03-17 07:16:44 51°13.662 2°55.96 3.3 80 4.9 101120 49
2011-03-17 07:16:48 51°13.662 2°55.96 4.5 29 4.9 101120 46
2011-03-17 07:16:54 51°13.662 2°55.96 5.2 45 4.9 101120 46
2011-03-17 07:16:58 51°13.662 2°55.96 3.3 25 4.9 101120 46
2011-03-17 07:17:03 51°13.662 2°55.96 4.6 288 4.9 101120 46
2011-03-17 07:17:09 51°13.662 2°55.96 3.6 263 4.9 101120 44
2011-03-17 07:17:14 51°13.662 2°55.96 3.4 355 4.9 101120 44
2011-03-17 07:17:18 51°13.662 2°55.96 4.1 33 4.9 101120 45
2011-03-17 07:17:23 51°13.662 2°55.96 5.2 291 4.9 101120 45
2011-03-17 07:17:28 51°13.662 2°55.96 4.3 33 4.9 101120 49
2011-03-17 07:17:34 51°13.662 2°55.96 3.4 279 4.9 101120 49
2011-03-17 07:17:38 51°13.662 2°55.96 2.7 269 4.9 101120 46
2011-03-17 07:17:43 51°13.662 2°55.96 3.1 76 4.9 101120 46
2011-03-17 07:17:48 51°13.662 2°55.96 3.7 36 4.8 101120 46
2011-03-17 07:17:54 51°13.662 2°55.96 2.9 281 4.8 101120 46
2011-03-17 07:17:58 51°13.662 2°55.96 3.2 268 4.8 101120 48
2011-03-17 07:18:03 51°13.662 2°55.96 2.8 83 4.8 101120 48
2011-03-17 07:18:08 51°13.662 2°55.96 4.1 33 4.9 101120 46
2011-03-17 07:18:13 51°13.662 2°55.96 3.4 76 4.9 101120 46
2011-03-17 07:18:18 51°13.662 2°55.96 3.1 269 4.9 101120 48
2011-03-17 07:18:24 51°13.662 2°55.96 3.8 76 4.9 101120 48
2011-03-17 07:18:28 51°13.662 2°55.96 4.6 33 4.8 101120 46
2011-03-17 07:18:33 51°13.662 2°55.96 4 74 4.8 101120 46
2011-03-17 07:18:38 51°13.662 2°55.96 3.5 36 4.8 101120 46
2011-03-17 07:18:43 51°13.662 2°55.96 1.8 281 4.8 101120 46
2011-03-17 07:18:48 51°13.662 2°55.96 2.1 21 4.8 101120 49
2011-03-17 07:18:54 51°13.662 2°55.96 3.1 74 4.8 101120 49
2011-03-17 07:18:58 51°13.662 2°55.96 4.3 269 4.8 101110 46
2011-03-17 07:19:03 51°13.662 2°55.959 3.7 281 4.8 101110 46
2011-03-17 07:19:08 51°13.663 2°55.959 2 270 4.8 101120 48
2011-03-17 07:19:14 51°13.663 2°55.959 1.5 82 4.8 101120 48
2011-03-17 07:19:18 51°13.663 2°55.959 1 267 4.8 101110 44
2011-03-17 07:19:23 51°13.663 2°55.959 3.6 289 4.8 101110 44
2011-03-17 07:19:28 51°13.663 2°55.959 3.1 267 4.8 101120 47
2011-03-17 07:19:34 51°13.662 2°55.959 1.2 287 4.8 101120 47
2011-03-17 07:19:38 51°13.662 2°55.959 2 24 4.8 101120 49
2011-03-17 07:19:43 51°13.662 2°55.959 2.2 84 4.8 101120 49
2011-03-17 07:19:48 51°13.662 2°55.959 1.9 242 4.8 101120 49
2011-03-17 07:19:54 51°13.662 2°55.959 1.8 80 4.8 101120 49
2011-03-17 07:19:58 51°13.662 2°55.959 1.6 21 4.8 101120 45
2011-03-17 07:20:03 51°13.662 2°55.959 0.8 81 4.8 101120 45
2011-03-17 07:20:08 51°13.662 2°55.959 0.2 36 4.8 101120 45
2011-03-17 07:20:13 51°13.662 2°55.959 0.1 283 4.8 101120 45
2011-03-17 07:20:18 51°13.662 2°55.959 1 17 4.8 101120 47
2011-03-17 07:20:23 51°13.662 2°55.959 1.7 278 4.8 101120 47
2011-03-17 07:20:28 51°13.662 2°55.959 1 37 4.8 101120 47
2011-03-17 07:20:33 51°13.662 2°55.959 0.4 78 4.8 101120 47
2011-03-17 07:20:38 51°13.662 2°55.959 1.1 266 4.8 101120 45
2011-03-17 07:20:43 51°13.662 2°55.959 0.4 287 4.8 101120 45
2011-03-17 07:20:48 51°13.662 2°55.959 0.8 38 4.8 101120 47
2011-03-17 07:20:53 51°13.662 2°55.959 0.4 82 4.8 101120 47
2011-03-17 07:20:58 51°13.662 2°55.959 1.1 31 4.8 101120 48
2011-03-17 07:21:04 51°13.662 2°55.959 0.8 285 4.8 101120 48
2011-03-17 07:21:08 51°13.662 2°55.959 1.2 22 4.8 101120 47
2011-03-17 07:21:14 51°13.662 2°55.959 0.2 82 4.8 101120 47
2011-03-17 07:21:18 51°13.662 2°55.959 2.8 37 4.8 101120 46
2011-03-17 07:21:23 51°13.662 2°55.959 2.2 78 4.8 101120 46
2011-03-17 07:21:28 51°13.662 2°55.959 1.6 41 4.8 101120 47
2011-03-17 07:21:33 51°13.662 2°55.959 0.6 285 4.8 101120 47
2011-03-17 07:21:38 51°13.662 2°55.959 0.7 267 4.8 101120 46
2011-03-17 07:21:43 51°13.662 2°55.959 0.1 282 4.8 101120 46
2011-03-17 07:21:48 51°13.662 2°55.959 0.1 36 4.8 101120 48
2011-03-17 07:21:54 51°13.662 2°55.959 2 287 4.8 101120 48
2011-03-17 07:21:58 51°13.662 2°55.959 0.7 34 4.8 101120 47
2011-03-17 07:22:03 51°13.662 2°55.959 1.5 73 4.8 101120 47
2011-03-17 07:22:07 51°13.662 2°55.959 0.7 33 4.8 101120 47
2011-03-17 07:22:13 51°13.662 2°55.959 0.1 77 4.8 101120 47
2011-03-17 07:22:18 51°13.662 2°55.959 0.1 39 4.8 101120 49
2011-03-17 07:22:22 51°13.662 2°55.959 0.7 76 4.8 101120 49
2011-03-17 07:22:27 51°13.662 2°55.959 0.7 36 4.8 101120 47
2011-03-17 07:22:33 51°13.662 2°55.959 0.1 77 4.8 101120 47
2011-03-17 07:22:38 51°13.662 2°55.959 0.7 271 4.8 101120 48
2011-03-17 07:22:43 51°13.662 2°55.959 0.8 291 4.8 101120 48
2011-03-17 07:22:48 51°13.662 2°55.959 1 24 4.8 101120 47
2011-03-17 07:22:53 51°13.662 2°55.959 2.3 81 4.8 101120 47
2011-03-17 07:22:58 51°13.662 2°55.959 0.4 256 4.8 101120 48
2011-03-17 07:23:03 51°13.662 2°55.959 0.1 283 4.8 101120 48
2011-03-17 07:23:08 51°13.662 2°55.959 0.1 37 4.8 101120 46
2011-03-17 07:23:13 51°13.662 2°55.959 -999 81 4.8 101120 46
2011-03-17 07:23:18 51°13.662 2°55.959 -999 24 4.8 101120 47
2011-03-17 07:23:23 51°13.662 2°55.959 -999 283 4.8 101120 47
2011-03-17 07:23:28 51°13.662 2°55.959 -999 260 4.8 101120 47
2011-03-17 07:23:34 51°13.662 2°55.959 -999 78 4.8 101120 47
2011-03-17 07:23:38 51°13.662 2°55.959 0.1 29 4.8 101120 47
2011-03-17 07:23:43 51°13.662 2°55.959 0.1 278 4.8 101120 47
2011-03-17 07:23:48 51°13.662 2°55.959 0.2 248 4.8 101120 47
2011-03-17 07:23:54 51°13.662 2°55.959 0.7 283 4.8 101120 47
2011-03-17 07:23:58 51°13.662 2°55.96 3.7 38 4.8 101120 43
2011-03-17 07:24:03 51°13.662 2°55.96 1.4 283 4.8 101120 43
2011-03-17 07:24:08 51°13.662 2°55.96 0.4 238 4.8 101120 47
2011-03-17 07:24:14 51°13.662 2°55.96 3.2 286 4.8 101120 47
2011-03-17 07:24:18 51°13.662 2°55.96 0.9 27 4.8 101120 46
2011-03-17 07:24:23 51°13.662 2°55.96 0.1 282 4.8 101120 46
2011-03-17 07:24:28 51°13.662 2°55.96 0.1 254 4.8 101120 48
2011-03-17 07:24:34 51°13.662 2°55.96 0.1 283 4.8 101120 48
2011-03-17 07:24:38 51°13.662 2°55.96 3.5 253 4.8 101120 47
2011-03-17 07:24:43 51°13.662 2°55.96 0.4 281 4.8 101120 47
2011-03-17 07:24:48 51°13.662 2°55.96 0.2 41 4.8 101120 47
2011-03-17 07:24:53 51°13.662 2°55.96 2.2 281 4.8 101120 47
2011-03-17 07:24:58 51°13.662 2°55.96 0.6 43 4.8 101120 46
2011-03-17 07:25:04 51°13.662 2°55.959 0.4 84 4.8 101120 46
2011-03-17 07:25:08 51°13.662 2°55.959 0.4 39 4.8 101120 45
2011-03-17 07:25:14 51°13.662 2°55.959 0.1 283 4.8 101120 45
2011-03-17 07:25:18 51°13.663 2°55.959 0.1 36 4.8 101130 45
2011-03-17 07:25:23 51°13.663 2°55.959 -999 35 4.8 101130 45
2011-03-17 07:25:29 51°13.663 2°55.959 0.1 25 4.8 101120 47
2011-03-17 07:25:34 51°13.663 2°55.959 2.1 291 4.8 101120 47
2011-03-17 07:25:38 51°13.663 2°55.959 0.4 266 4.8 101120 47
2011-03-17 07:25:44 51°13.663 2°55.959 2.1 285 4.8 101120 47
2011-03-17 07:25:49 51°13.663 2°55.959 0.4 250 4.9 101120 47
2011-03-17 07:25:54 51°13.663 2°55.959 2.7 284 4.9 101120 47
2011-03-17 07:25:58 51°13.663 2°55.959 0.3 36 4.8 101120 48
2011-03-17 07:26:03 51°13.663 2°55.959 0.1 283 4.8 101120 48
2011-03-17 07:26:08 51°13.663 2°55.959 0.5 268 4.8 101120 49
2011-03-17 07:26:14 51°13.662 2°55.959 0.1 286 4.8 101120 49
2011-03-17 07:26:18 51°13.662 2°55.959 0.1 37 4.9 101120 44
2011-03-17 07:26:23 51°13.662 2°55.959 -999 283 4.9 101120 44
2011-03-17 07:26:28 51°13.662 2°55.959 -999 243 4.9 101120 47
2011-03-17 07:26:33 51°13.662 2°55.959 2.7 282 4.9 101120 47
2011-03-17 07:26:38 51°13.662 2°55.959 3.1 26 4.9 101120 45
2011-03-17 07:26:42 51°13.662 2°55.959 2.2 285 4.9 101120 45
2011-03-17 07:26:48 51°13.662 2°55.959 4.2 261 4.9 101120 48
2011-03-17 07:26:53 51°13.662 2°55.959 0.3 282 4.9 101120 48
2011-03-17 07:26:58 51°13.662 2°55.959 0.2 256 4.9 101130 49
2011-03-17 07:27:03 51°13.662 2°55.959 0.1 77 4.9 101130 49
2011-03-17 07:27:08 51°13.662 2°55.959 0.1 34 4.9 101130 47
2011-03-17 07:27:13 51°13.662 2°55.959 -999 283 4.9 101130 47
2011-03-17 07:27:18 51°13.662 2°55.96 1.5 261 4.8 101130 47
2011-03-17 07:27:24 51°13.662 2°55.959 4.3 285 4.8 101130 47
2011-03-17 07:27:28 51°13.662 2°55.96 0.1 25 4.8 101120 47
2011-03-17 07:27:33 51°13.662 2°55.96 0.1 283 4.8 101120 47
2011-03-17 07:27:38 51°13.662 2°55.96 0.1 263 4.8 101130 48
2011-03-17 07:27:44 51°13.662 2°55.96 0.9 86 4.8 101130 48
2011-03-17 07:27:49 51°13.662 2°55.96 0.2 255 4.8 101130 47
2011-03-17 07:27:54 51°13.662 2°55.96 0.5 278 4.8 101130 47
2011-03-17 07:27:58 51°13.662 2°55.96 0.2 270 4.8 101120 48
2011-03-17 07:28:03 51°13.662 2°55.96 0.1 282 4.8 101120 48
2011-03-17 07:28:08 51°13.663 2°55.96 -999 27 4.8 101120 45
2011-03-17 07:28:14 51°13.663 2°55.96 -999 77 4.8 101120 45
2011-03-17 07:28:18 51°13.663 2°55.96 -999 261 4.8 101120 47
2011-03-17 07:28:23 51°13.663 2°55.96 -999 283 4.8 101120 47
2011-03-17 07:28:28 51°13.663 2°55.96 -999 36 4.8 101120 47
2011-03-17 07:28:34 51°13.663 2°55.96 -999 77 4.8 101120 47
2011-03-17 07:28:38 51°13.663 2°55.96 -999 36 4.8 101120 47
2011-03-17 07:28:43 51°13.663 2°55.96 0.5 283 4.8 101120 47
2011-03-17 07:28:48 51°13.663 2°55.96 0.1 43 4.8 101120 47
2011-03-17 07:28:53 51°13.663 2°55.96 0.1 283 4.8 101120 47
2011-03-17 07:28:58 51°13.663 2°55.96 -999 266 4.9 101130 47
2011-03-17 07:29:03 51°13.663 2°55.96 0.1 287 4.9 101130 47
2011-03-17 07:29:08 51°13.663 2°55.96 0.1 36 4.8 101120 47
2011-03-17 07:29:13 51°13.663 2°55.96 0.1 80 4.8 101120 47
2011-03-17 07:29:18 51°13.663 2°55.96 0.7 257 4.8 101130 46
2011-03-17 07:29:23 51°13.663 2°55.96 2 284 4.8 101130 46
2011-03-17 07:29:28 51°13.663 2°55.96 0.3 36 4.9 101130 47
2011-03-17 07:29:34 51°13.663 2°55.96 0.2 283 4.9 101130 47
2011-03-17 07:29:38 51°13.663 2°55.96 1.3 258 4.9 101130 49
2011-03-17 07:29:44 51°13.663 2°55.96 2.9 284 4.9 101130 49
2011-03-17 07:29:48 51°13.662 2°55.96 3.3 266 4.8 101130 47
2011-03-17 07:29:54 51°13.662 2°55.96 2.9 280 4.8 101130 47
2011-03-17 07:29:58 51°13.662 2°55.96 1.2 266 4.8 101130 48
2011-03-17 07:30:03 51°13.662 2°55.96 0.8 283 4.8 101130 48
2011-03-17 07:30:08 51°13.662 2°55.96 4.1 268 4.8 101120 46
2011-03-17 07:30:14 51°13.662 2°55.96 1.6 77 4.8 101120 46
2011-03-17 07:30:18 51°13.662 2°55.96 2.4 30 4.8 101130 47
2011-03-17 07:30:23 51°13.662 2°55.96 3.5 83 4.8 101130 47
2011-03-17 07:30:29 51°13.662 2°55.96 2.4 270 4.8 101130 48
2011-03-17 07:30:34 51°13.662 2°55.96 2.3 76 4.8 101130 48
2011-03-17 07:30:38 51°13.662 2°55.96 2.7 270 4.8 101130 45
2011-03-17 07:30:43 51°13.662 2°55.96 0.9 79 4.8 101130 45
2011-03-17 07:30:49 51°13.662 2°55.96 3 265 4.8 101130 48
2011-03-17 07:30:54 51°13.662 2°55.96 2 78 4.8 101130 48
2011-03-17 07:30:58 51°13.662 2°55.96 2.4 268 4.8 101130 48
2011-03-17 07:31:03 51°13.662 2°55.96 0.5 281 4.8 101130 48
2011-03-17 07:31:08 51°13.662 2°55.96 1.1 266 4.8 101120 50
2011-03-17 07:31:13 51°13.662 2°55.96 0.2 278 4.8 101120 50
2011-03-17 07:31:18 51°13.662 2°55.96 0.7 26 4.8 101120 47
2011-03-17 07:31:23 51°13.662 2°55.96 0.1 77 4.8 101120 47
2011-03-17 07:31:28 51°13.662 2°55.96 0.1 252 4.8 101120 47
2011-03-17 07:31:33 51°13.662 2°55.96 0.7 286 4.8 101120 47
2011-03-17 07:31:38 51°13.662 2°55.96 0.1 25 4.8 101120 47
2011-03-17 07:31:44 51°13.662 2°55.96 0.1 81 4.8 101120 47
2011-03-17 07:31:48 51°13.662 2°55.96 -999 257 4.8 101120 47
2011-03-17 07:31:53 51°13.662 2°55.96 -999 78 4.8 101120 47
2011-03-17 07:31:58 51°13.662 2°55.96 0.6 265 4.8 101120 46
2011-03-17 07:32:03 51°13.662 2°55.96 0.1 78 4.8 101120 46
2011-03-17 07:32:08 51°13.662 2°55.96 0.1 259 4.8 101120 49
2011-03-17 07:32:14 51°13.662 2°55.96 0.1 278 4.8 101120 49
2011-03-17 07:32:18 51°13.662 2°55.96 0.3 261 4.8 101120 47
2011-03-17 07:32:24 51°13.663 2°55.96 0.2 287 4.8 101120 47
2011-03-17 07:32:28 51°13.662 2°55.96 0.2 270 4.8 101120 47
2011-03-17 07:32:34 51°13.663 2°55.96 0.1 287 4.8 101120 47
2011-03-17 07:32:38 51°13.663 2°55.96 0.1 37 4.8 101120 47
2011-03-17 07:32:43 51°13.663 2°55.96 -999 78 4.8 101120 47
2011-03-17 07:32:48 51°13.663 2°55.96 -999 270 4.8 101120 47
2011-03-17 07:32:54 51°13.663 2°55.96 -999 283 4.8 101120 47
2011-03-17 07:32:58 51°13.663 2°55.96 -999 270 4.8 101120 47
2011-03-17 07:33:03 51°13.663 2°55.96 -999 283 4.8 101120 47
2011-03-17 07:33:08 51°13.663 2°55.96 0.1 267 4.8 101120 47
2011-03-17 07:33:14 51°13.663 2°55.96 0.1 283 4.8 101120 47
2011-03-17 07:33:18 51°13.663 2°55.96 0.1 27 4.8 101120 47
2011-03-17 07:33:23 51°13.663 2°55.96 -999 78 4.8 101120 47
2011-03-17 07:33:28 51°13.663 2°55.96 -999 34 4.8 101120 47
2011-03-17 07:33:33 51°13.663 2°55.96 -999 82 4.8 101120 47
2011-03-17 07:33:38 51°13.663 2°55.96 -999 265 4.8 101120 47
2011-03-17 07:33:43 51°13.663 2°55.96 -999 77 4.8 101120 47
2011-03-17 07:33:48 51°13.663 2°55.96 -999 34 4.8 101120 47
2011-03-17 07:33:53 51°13.663 2°55.96 -999 73 4.8 101120 47
2011-03-17 07:33:58 51°13.663 2°55.959 -999 267 4.8 101120 47
2011-03-17 07:34:03 51°13.663 2°55.959 -999 283 4.8 101120 47
2011-03-17 07:34:08 51°13.663 2°55.959 -999 269 4.8 101120 47
2011-03-17 07:34:14 51°13.663 2°55.959 1.4 77 4.8 101120 47
2011-03-17 07:34:18 51°13.663 2°55.959 1.7 35 4.8 101120 47
2011-03-17 07:34:24 51°13.663 2°55.959 1.2 77 4.8 101120 47
2011-03-17 07:34:28 51°13.663 2°55.959 0.1 270 4.8 101130 47
2011-03-17 07:34:34 51°13.663 2°55.959 0.1 81 4.8 101130 47
2011-03-17 07:34:38 51°13.663 2°55.959 1.3 35 4.8 101130 45
2011-03-17 07:34:43 51°13.663 2°55.959 1 282 4.8 101130 45
2011-03-17 07:34:48 51°13.663 2°55.959 0.4 269 4.8 101130 49
2011-03-17 07:34:54 51°13.663 2°55.959 0.7 287 4.8 101130 49
2011-03-17 07:34:58 51°13.663 2°55.96 1.9 269 4.8 101130 47
2011-03-17 07:35:03 51°13.663 2°55.96 0.4 278 4.8 101130 47
2011-03-17 07:35:08 51°13.663 2°55.96 0.2 263 4.8 101130 46
2011-03-17 07:35:14 51°13.663 2°55.96 0.1 77 4.8 101130 46
2011-03-17 07:35:18 51°13.663 2°55.96 0.1 34 4.8 101130 47
2011-03-17 07:35:23 51°13.663 2°55.961 -999 77 4.8 101130 47
2011-03-17 07:35:28 51°13.663 2°55.96 0.1 30 4.8 101130 50
2011-03-17 07:35:34 51°13.663 2°55.96 0.1 78 4.8 101130 50
2011-03-17 07:35:38 51°13.663 2°55.96 0.1 36 4.8 101130 47
2011-03-17 07:35:43 51°13.663 2°55.96 -999 78 4.8 101130 47
2011-03-17 07:35:48 51°13.663 2°55.96 -999 34 4.8 101130 47
2011-03-17 07:35:53 51°13.663 2°55.961 -999 77 4.8 101130 47
2011-03-17 07:35:58 51°13.662 2°55.961 -999 23 4.8 101140 47
2011-03-17 07:36:04 51°13.663 2°55.961 -999 77 4.8 101140 47
2011-03-17 07:36:08 51°13.662 2°55.961 -999 22 4.8 101130 47
2011-03-17 07:36:13 51°13.663 2°55.961 -999 77 4.8 101130 47
2011-03-17 07:36:18 51°13.663 2°55.96 -999 22 4.8 101130 47
2011-03-17 07:36:24 51°13.663 2°55.96 -999 282 4.8 101130 47
2011-03-17 07:36:28 51°13.663 2°55.961 1.6 28 4.8 101130 47
2011-03-17 07:36:33 51°13.663 2°55.961 0.9 77 4.8 101130 47
2011-03-17 07:36:38 51°13.663 2°55.961 2.7 38 4.8 101140 47
2011-03-17 07:36:43 51°13.663 2°55.961 1.3 78 4.8 101140 47
2011-03-17 07:36:48 51°13.662 2°55.961 1.1 25 4.8 101140 45
2011-03-17 07:36:54 51°13.663 2°55.961 2.8 77 4.8 101140 45
2011-03-17 07:36:58 51°13.663 2°55.961 1.1 34 4.8 101130 45
2011-03-17 07:37:03 51°13.663 2°55.961 0.9 79 4.8 101130 45
2011-03-17 07:37:08 51°13.663 2°55.961 1.8 34 4.8 101140 49
2011-03-17 07:37:13 51°13.663 2°55.96 2 77 4.8 101140 49
2011-03-17 07:37:18 51°13.663 2°55.96 1.5 32 4.8 101140 46
2011-03-17 07:37:23 51°13.663 2°55.96 2.3 76 4.8 101140 46
2011-03-17 07:37:28 51°13.663 2°55.96 2.8 33 4.8 101140 46
2011-03-17 07:37:34 51°13.663 2°55.96 0.2 77 4.8 101140 46
2011-03-17 07:37:38 51°13.663 2°55.96 0.1 34 4.8 101140 48
2011-03-17 07:37:43 51°13.662 2°55.96 0.8 81 4.8 101140 48
2011-03-17 07:37:48 51°13.662 2°55.961 2.2 33 4.8 101140 47
2011-03-17 07:37:54 51°13.662 2°55.961 4 81 4.8 101140 47
2011-03-17 07:37:58 51°13.662 2°55.961 3.5 21 4.8 101140 46
2011-03-17 07:38:03 51°13.662 2°55.961 2.7 75 4.8 101140 46
2011-03-17 07:38:08 51°13.662 2°55.961 3.8 37 4.8 101140 46
2011-03-17 07:38:13 51°13.662 2°55.961 2.9 76 4.8 101140 46
2011-03-17 07:38:18 51°13.663 2°55.961 1.5 22 4.9 101140 49
2011-03-17 07:38:24 51°13.663 2°55.961 1.8 82 4.9 101140 49
2011-03-17 07:38:28 51°13.663 2°55.961 2.7 36 4.9 101140 46
2011-03-17 07:38:34 51°13.663 2°55.96 3.3 79 4.9 101140 46
2011-03-17 07:38:38 51°13.663 2°55.96 3.8 31 4.9 101140 46
2011-03-17 07:38:43 51°13.663 2°55.96 3.1 76 4.9 101140 46
2011-03-17 07:38:48 51°13.663 2°55.961 2.8 35 4.9 101140 46
2011-03-17 07:38:53 51°13.663 2°55.961 2.1 77 4.9 101140 46
2011-03-17 07:38:58 51°13.663 2°55.961 0.4 32 4.9 101150 46
2011-03-17 07:39:03 51°13.663 2°55.961 0.1 14 4.9 101150 46
2011-03-17 07:39:08 51°13.663 2°55.961 -999 23 4.9 101140 49
2011-03-17 07:39:14 51°13.662 2°55.961 0.1 282 4.9 101140 49
2011-03-17 07:39:18 51°13.662 2°55.961 0.3 270 4.9 101140 47
2011-03-17 07:39:23 51°13.662 2°55.96 1.2 73 4.9 101140 47
2011-03-17 07:39:28 51°13.662 2°55.96 0.7 22 4.9 101140 47
2011-03-17 07:39:34 51°13.662 2°55.96 1 76 4.9 101140 47
2011-03-17 07:39:38 51°13.662 2°55.96 0.4 36 4.9 101140 49
2011-03-17 07:39:42 51°13.662 2°55.96 1.5 287 4.9 101140 49
2011-03-17 07:39:47 51°13.662 2°55.96 1.1 40 4.9 101140 47
2011-03-17 07:39:53 51°13.662 2°55.96 2.7 73 4.9 101140 47
2011-03-17 07:39:58 51°13.662 2°55.96 2.7 36 4.9 101140 46
2011-03-17 07:40:02 51°13.662 2°55.96 1.6 281 4.9 101140 46
2011-03-17 07:40:07 51°13.662 2°55.96 1.6 265 4.9 101140 47
2011-03-17 07:40:13 51°13.662 2°55.96 1.8 278 4.9 101140 47
2011-03-17 07:40:18 51°13.661 2°55.96 1.8 257 4.9 101140 48
2011-03-17 07:40:22 51°13.662 2°55.96 0.3 282 4.9 101140 48
2011-03-17 07:40:27 51°13.662 2°55.959 1.4 263 4.9 101150 48
2011-03-17 07:40:32 51°13.662 2°55.957 1.8 75 4.9 101150 48
2011-03-17 07:40:37 51°13.662 2°55.955 1.2 263 4.9 101140 47
2011-03-17 07:40:42 51°13.663 2°55.953 1.9 286 4.9 101140 47
2011-03-17 07:40:46 51°13.664 2°55.951 1.2 263 4.9 101140 46
2011-03-17 07:40:51 51°13.665 2°55.947 4.1 73 4.9 101140 46
2011-03-17 07:40:56 51°13.666 2°55.943 3.7 270 4.9 101140 47
2011-03-17 07:41:02 51°13.667 2°55.938 4 78 4.9 101140 47
2011-03-17 07:41:07 51°13.668 2°55.933 3.5 33 4.9 101150 45
2011-03-17 07:41:13 51°13.669 2°55.926 4.2 80 4.9 101150 45
2011-03-17 07:41:18 51°13.67 2°55.92 3.4 34 4.9 101140 46
2011-03-17 07:41:23 51°13.672 2°55.913 2.9 76 4.9 101140 46
2011-03-17 07:41:28 51°13.673 2°55.906 5.1 23 4.9 101140 49
2011-03-17 07:41:34 51°13.674 2°55.897 5.8 81 4.9 101140 49
2011-03-17 07:41:38 51°13.675 2°55.891 6.5 36 5 101140 50
2011-03-17 07:41:43 51°13.676 2°55.882 6.2 80 5 101140 50
2011-03-17 07:41:49 51°13.677 2°55.873 4.1 32 4.9 101140 48
2011-03-17 07:41:54 51°13.678 2°55.865 4.4 80 4.9 101140 48
2011-03-17 07:41:58 51°13.679 2°55.858 5.9 31 4.9 101150 47
2011-03-17 07:42:03 51°13.68 2°55.85 7.4 279 4.9 101150 47
2011-03-17 07:42:08 51°13.681 2°55.842 4.2 269 5 101140 46
2011-03-17 07:42:14 51°13.683 2°55.833 4.1 85 5 101140 46
2011-03-17 07:42:18 51°13.684 2°55.827 5.5 22 5 101140 48
2011-03-17 07:42:23 51°13.685 2°55.819 5.1 79 5 101140 48
2011-03-17 07:42:28 51°13.686 2°55.811 5 267 5 101140 49
2011-03-17 07:42:33 51°13.688 2°55.804 6 76 5 101140 49
2011-03-17 07:42:38 51°13.689 2°55.796 5.6 24 5 101140 45
2011-03-17 07:42:43 51°13.691 2°55.789 4.9 79 5 101140 45
2011-03-17 07:42:48 51°13.692 2°55.782 6.9 31 4.9 101140 46
2011-03-17 07:42:53 51°13.694 2°55.775 4.7 84 4.9 101140 46
2011-03-17 07:42:58 51°13.696 2°55.769 7.1 21 4.9 101140 47
2011-03-17 07:43:03 51°13.698 2°55.762 4.7 81 4.9 101140 47
2011-03-17 07:43:09 51°13.701 2°55.755 5.5 270 4.9 101140 48
2011-03-17 07:43:13 51°13.703 2°55.75 4.6 74 4.9 101140 48
2011-03-17 07:43:18 51°13.705 2°55.744 7 33 4.9 101140 48
2011-03-17 07:43:24 51°13.709 2°55.736 6.2 74 4.9 101140 48
2011-03-17 07:43:28 51°13.711 2°55.732 6.8 24 4.9 101140 49
2011-03-17 07:43:34 51°13.715 2°55.725 7.1 75 4.9 101140 49
2011-03-17 07:43:38 51°13.718 2°55.72 5.2 37 4.9 101140 46
2011-03-17 07:43:43 51°13.722 2°55.714 5.5 76 4.9 101140 46
2011-03-17 07:43:48 51°13.726 2°55.708 5.1 21 4.9 101140 46
2011-03-17 07:43:54 51°13.731 2°55.701 5.3 77 4.9 101140 46
2011-03-17 07:43:58 51°13.734 2°55.697 5 31 4.9 101140 46
2011-03-17 07:44:03 51°13.74 2°55.691 5.1 75 4.9 101140 46
2011-03-17 07:44:09 51°13.746 2°55.684 4.5 25 4.9 101140 48
2011-03-17 07:44:14 51°13.751 2°55.679 5 81 4.9 101140 48
2011-03-17 07:44:18 51°13.755 2°55.674 5.5 25 4.9 101140 48
2011-03-17 07:44:23 51°13.761 2°55.669 5.7 79 4.9 101140 48
2011-03-17 07:44:28 51°13.767 2°55.664 4.7 36 4.9 101140 49
2011-03-17 07:44:34 51°13.774 2°55.658 4.8 77 4.9 101140 49
2011-03-17 07:44:38 51°13.779 2°55.655 5 18 4.9 101140 48
2011-03-17 07:44:43 51°13.785 2°55.65 7 81 4.9 101140 48
2011-03-17 07:44:48 51°13.791 2°55.646 5 37 4.9 101140 47
2011-03-17 07:44:53 51°13.798 2°55.642 4.5 76 4.9 101140 47
2011-03-17 07:44:58 51°13.805 2°55.638 3.9 35 4.9 101140 46
2011-03-17 07:45:04 51°13.813 2°55.634 5.5 80 4.9 101140 46
2011-03-17 07:45:08 51°13.819 2°55.631 5.4 30 4.9 101140 48
2011-03-17 07:45:13 51°13.826 2°55.628 4.1 80 4.9 101140 48
2011-03-17 07:45:18 51°13.833 2°55.626 1.7 18 4.9 101140 47
2011-03-17 07:45:23 51°13.841 2°55.623 1.5 77 4.9 101140 47
2011-03-17 07:45:28 51°13.848 2°55.621 3.9 28 5 101140 47
2011-03-17 07:45:33 51°13.854 2°55.62 2.3 80 5 101140 47
2011-03-17 07:45:38 51°13.861 2°55.619 0.9 32 5.1 101140 49
2011-03-17 07:45:44 51°13.869 2°55.618 4.4 77 5.1 101140 49
2011-03-17 07:45:48 51°13.874 2°55.618 2.6 21 5.2 101140 47
2011-03-17 07:45:54 51°13.882 2°55.619 0.8 75 5.2 101140 47
2011-03-17 07:45:58 51°13.886 2°55.619 4.1 31 5.3 101140 50
2011-03-17 07:46:03 51°13.892 2°55.619 4.1 73 5.3 101140 50
2011-03-17 07:46:08 51°13.898 2°55.62 3.1 21 5.2 101130 49
2011-03-17 07:46:14 51°13.904 2°55.623 4.6 74 5.2 101130 49
2011-03-17 07:46:18 51°13.908 2°55.624 4.3 35 5.2 101130 46
2011-03-17 07:46:23 51°13.913 2°55.627 4.3 75 5.2 101130 46
2011-03-17 07:46:28 51°13.918 2°55.629 4.2 19 5.2 101130 46
2011-03-17 07:46:33 51°13.922 2°55.632 4.9 77 5.2 101130 46
2011-03-17 07:46:38 51°13.927 2°55.634 4.8 32 5.2 101130 46
2011-03-17 07:46:43 51°13.931 2°55.637 3.4 76 5.2 101130 46
2011-03-17 07:46:48 51°13.934 2°55.64 5.1 41 5.2 101130 46
2011-03-17 07:46:53 51°13.938 2°55.643 3.3 44 5.2 101130 46
2011-03-17 07:46:58 51°13.941 2°55.645 3.2 25 5.1 101130 48
2011-03-17 07:47:02 51°13.944 2°55.647 2.7 76 5.1 101130 48
2011-03-17 07:47:07 51°13.947 2°55.649 2.2 44 5.1 101130 49
2011-03-17 07:47:12 51°13.949 2°55.651 1.3 41 5.1 101130 49
2011-03-17 07:47:17 51°13.95 2°55.651 0.2 21 5.1 101130 46
2011-03-17 07:47:22 51°13.951 2°55.651 1.2 -999 5.1 101130 46
2011-03-17 07:47:26 51°13.952 2°55.651 0.4 39 5.1 101130 46
2011-03-17 07:47:31 51°13.952 2°55.65 0.2 33 5.1 101130 46
2011-03-17 07:47:36 51°13.952 2°55.649 2.7 27 5.1 101130 46
2011-03-17 07:47:41 51°13.952 2°55.646 2.7 24 5.1 101130 46
2011-03-17 07:47:46 51°13.951 2°55.642 2 23 5.1 101130 47
2011-03-17 07:47:50 51°13.951 2°55.638 3.5 22 5.1 101130 47
2011-03-17 07:47:55 51°13.95 2°55.631 4.4 13 5.1 101130 47
2011-03-17 07:48:00 51°13.951 2°55.624 3.8 5 5.1 101130 46
2011-03-17 07:48:05 51°13.952 2°55.616 4.4 8 5.1 101130 46
2011-03-17 07:48:10 51°13.953 2°55.608 4.5 4 5.1 101130 46
2011-03-17 07:48:15 51°13.956 2°55.6 3.3 355 5.1 101130 46
2011-03-17 07:48:20 51°13.959 2°55.593 4.3 356 5.1 101130 48
2011-03-17 07:48:25 51°13.963 2°55.585 4.7 353 5.1 101130 45
2011-03-17 07:48:30 51°13.968 2°55.578 4.7 280 5.1 101130 45
2011-03-17 07:48:35 51°13.973 2°55.571 5.5 344 5.1 101130 45
2011-03-17 07:48:40 51°13.979 2°55.563 6.1 350 5.1 101130 46
2011-03-17 07:48:45 51°13.986 2°55.556 6 347 5.1 101130 46
2011-03-17 07:48:50 51°13.993 2°55.548 6.1 285 5.1 101130 49
2011-03-17 07:48:55 51°14 2°55.54 7.2 347 5.1 101130 49
2011-03-17 07:49:00 51°14.008 2°55.531 8.7 349 5.1 101130 48
2011-03-17 07:49:05 51°14.016 2°55.523 7.1 345 5.1 101130 48
2011-03-17 07:49:10 51°14.024 2°55.514 8.3 282 5.1 101120 47
2011-03-17 07:49:15 51°14.032 2°55.505 8.3 341 5.1 101120 46
2011-03-17 07:49:20 51°14.041 2°55.496 9.7 285 5.1 101120 46
2011-03-17 07:49:25 51°14.05 2°55.487 7.5 341 5.1 101120 46
2011-03-17 07:49:30 51°14.059 2°55.478 9.1 284 5.1 101120 47
2011-03-17 07:49:34 51°14.067 2°55.47 9.2 340 5.1 101120 47
2011-03-17 07:49:40 51°14.078 2°55.459 9.3 282 5.1 101110 48
2011-03-17 07:49:45 51°14.088 2°55.45 8.3 343 5.1 101110 48
2011-03-17 07:49:50 51°14.098 2°55.44 7.9 286 5.1 101110 46
2011-03-17 07:49:55 51°14.108 2°55.431 7.8 338 5.1 101110 46
2011-03-17 07:50:00 51°14.118 2°55.422 7.5 280 5.1 101110 48
2011-03-17 07:50:05 51°14.129 2°55.413 8.7 342 5 101110 48
2011-03-17 07:50:09 51°14.137 2°55.405 9.5 279 5 101110 48
2011-03-17 07:50:15 51°14.149 2°55.394 9.9 340 5 101110 48
2011-03-17 07:50:19 51°14.158 2°55.386 9.4 284 5 101110 46
2011-03-17 07:50:25 51°14.17 2°55.374 9 341 5 101110 48
2011-03-17 07:50:30 51°14.181 2°55.364 8.7 281 5 101110 48
2011-03-17 07:50:35 51°14.191 2°55.353 8.4 345 5 101110 48
2011-03-17 07:50:41 51°14.204 2°55.34 8.5 280 5 101110 47
2011-03-17 07:50:46 51°14.215 2°55.329 8.2 345 5 101110 47
2011-03-17 07:50:52 51°14.228 2°55.315 8.2 280 5 101110 48
2011-03-17 07:50:57 51°14.24 2°55.304 8.9 345 5 101110 48
2011-03-17 07:51:03 51°14.254 2°55.29 8.5 348 5 101110 46
2011-03-17 07:51:08 51°14.265 2°55.279 8.5 348 5 101110 46
2011-03-17 07:51:13 51°14.277 2°55.267 9.2 347 5 101110 48
2011-03-17 07:51:17 51°14.287 2°55.258 9.5 347 5 101110 47
2011-03-17 07:51:23 51°14.302 2°55.244 9.2 284 5 101110 47
2011-03-17 07:51:27 51°14.312 2°55.234 10.3 348 5 101110 47
2011-03-17 07:51:33 51°14.326 2°55.218 8.8 281 5 101100 46
2011-03-17 07:51:37 51°14.337 2°55.208 8.7 347 5 101100 46
2011-03-17 07:51:42 51°14.349 2°55.195 9.6 280 5 101100 47
2011-03-17 07:51:47 51°14.362 2°55.181 9.7 348 5 101100 47
2011-03-17 07:51:51 51°14.373 2°55.171 9.4 348 4.9 101100 47
2011-03-17 07:51:57 51°14.389 2°55.154 8.7 349 4.9 101100 47
2011-03-17 07:52:02 51°14.402 2°55.14 10.3 282 4.9 101100 48
2011-03-17 07:52:06 51°14.413 2°55.129 9.1 347 4.9 101100 46
2011-03-17 07:52:11 51°14.426 2°55.114 8.9 282 4.9 101100 46
2011-03-17 07:52:16 51°14.439 2°55.1 7.9 343 4.9 101100 46
2011-03-17 07:52:21 51°14.452 2°55.085 9.9 281 4.9 101100 46
2011-03-17 07:52:26 51°14.465 2°55.069 8.7 348 4.9 101100 46
2011-03-17 07:52:31 51°14.478 2°55.053 9.1 280 4.9 101100 46
2011-03-17 07:52:37 51°14.494 2°55.035 9.4 345 4.9 101100 46
2011-03-17 07:52:42 51°14.507 2°55.02 8.7 347 4.9 101100 48
2011-03-17 07:52:46 51°14.518 2°55.008 9.5 347 4.9 101100 48
2011-03-17 07:52:51 51°14.531 2°54.993 8.9 287 4.9 101100 48
2011-03-17 07:52:56 51°14.545 2°54.978 9.7 344 4.9 101100 48
2011-03-17 07:53:01 51°14.558 2°54.963 9.6 284 4.9 101100 48
2011-03-17 07:53:06 51°14.571 2°54.948 9.4 343 4.9 101100 48
2011-03-17 07:53:10 51°14.582 2°54.936 10.3 283 4.9 101100 48
2011-03-17 07:53:15 51°14.595 2°54.92 10.4 344 4.9 101100 48
2011-03-17 07:53:20 51°14.608 2°54.905 9.8 284 4.9 101090 47
2011-03-17 07:53:25 51°14.621 2°54.889 8.8 343 4.9 101090 47
2011-03-17 07:53:30 51°14.634 2°54.873 10.1 282 4.9 101090 46
2011-03-17 07:53:35 51°14.647 2°54.858 10.1 344 4.9 101080 48
2011-03-17 07:53:39 51°14.658 2°54.846 10.5 279 4.9 101080 48
2011-03-17 07:53:45 51°14.674 2°54.827 9.7 346 4.9 101080 48
2011-03-17 07:53:50 51°14.687 2°54.812 8.8 282 4.9 101100 48
2011-03-17 07:53:55 51°14.7 2°54.796 8.9 345 4.9 101090 47
2011-03-17 07:54:00 51°14.713 2°54.781 9.5 283 4.9 101090 47
2011-03-17 07:54:05 51°14.726 2°54.766 9.2 344 4.9 101080 48
2011-03-17 07:54:10 51°14.74 2°54.751 9 281 4.9 101080 48
2011-03-17 07:54:15 51°14.753 2°54.737 9.2 347 4.9 101080 48
2011-03-17 07:54:19 51°14.764 2°54.725 10.4 280 4.9 101090 46
2011-03-17 07:54:25 51°14.781 2°54.709 11.2 349 4.9 101090 48
2011-03-17 07:54:30 51°14.795 2°54.696 11.5 348 4.9 101090 48
2011-03-17 07:54:35 51°14.809 2°54.683 11.2 348 4.9 101090 48
2011-03-17 07:54:40 51°14.823 2°54.67 9.5 283 4.9 101100 47
2011-03-17 07:54:45 51°14.838 2°54.659 8.7 342 4.9 101090 48
2011-03-17 07:54:50 51°14.852 2°54.647 9.2 279 4.9 101090 48
2011-03-17 07:54:55 51°14.867 2°54.635 9.7 340 4.9 101090 48
2011-03-17 07:55:00 51°14.881 2°54.623 9.4 283 4.9 101080 47
2011-03-17 07:55:04 51°14.893 2°54.614 9.1 337 4.9 101090 47
2011-03-17 07:55:10 51°14.91 2°54.599 10.5 283 4.9 101090 47
2011-03-17 07:55:15 51°14.924 2°54.586 10.6 340 4.9 101100 47
2011-03-17 07:55:20 51°14.938 2°54.574 9.8 341 4.9 101100 47
2011-03-17 07:55:25 51°14.952 2°54.562 9.9 340 4.9 101100 47
2011-03-17 07:55:30 51°14.967 2°54.55 9.8 282 5 101100 47
2011-03-17 07:55:34 51°14.978 2°54.54 9.2 340 5 101100 47
2011-03-17 07:55:38 51°14.989 2°54.531 11.1 282 5 101100 47
2011-03-17 07:55:44 51°15.006 2°54.516 11.7 344 5 101100 47
2011-03-17 07:55:49 51°15.02 2°54.505 11.4 281 5 101100 47
2011-03-17 07:55:54 51°15.035 2°54.492 11.9 346 5 101100 47
2011-03-17 07:55:58 51°15.046 2°54.483 11.7 280 4.9 101090 46
2011-03-17 07:56:04 51°15.063 2°54.468 11.9 346 4.9 101090 46
2011-03-17 07:56:10 51°15.079 2°54.452 11.5 286 4.9 101090 48
2011-03-17 07:56:14 51°15.091 2°54.443 10.5 341 4.9 101080 48
2011-03-17 07:56:18 51°15.102 2°54.437 11.5 280 4.9 101080 48
2011-03-17 07:56:24 51°15.12 2°54.427 12.7 340 4.9 101080 48
2011-03-17 07:56:30 51°15.138 2°54.419 10.6 283 4.9 101080 48
2011-03-17 07:56:34 51°15.151 2°54.414 11.3 340 4.9 101080 48
2011-03-17 07:56:40 51°15.169 2°54.407 11.1 282 4.9 101080 48
2011-03-17 07:56:45 51°15.185 2°54.404 11.5 340 4.9 101080 48
2011-03-17 07:56:50 51°15.2 2°54.401 10.4 282 4.9 101090 48
2011-03-17 07:56:54 51°15.213 2°54.4 11.5 336 4.9 101090 48
2011-03-17 07:57:00 51°15.232 2°54.399 10.4 282 4.9 101090 47
2011-03-17 07:57:05 51°15.248 2°54.399 10 336 4.9 101090 47
2011-03-17 07:57:10 51°15.264 2°54.4 11.1 285 4.9 101100 47
2011-03-17 07:57:14 51°15.276 2°54.401 11.2 335 4.9 101100 47
2011-03-17 07:57:18 51°15.289 2°54.402 11 286 4.9 101090 47
2011-03-17 07:57:25 51°15.312 2°54.404 10.6 337 4.9 101090 47
2011-03-17 07:57:30 51°15.328 2°54.403 9.8 283 4.9 101100 47
2011-03-17 07:57:34 51°15.34 2°54.402 10.8 336 4.9 101100 47
2011-03-17 07:57:38 51°15.353 2°54.4 10.6 282 4.9 101100 47
2011-03-17 07:57:44 51°15.372 2°54.397 11.2 336 4.9 101100 47
2011-03-17 07:57:50 51°15.39 2°54.393 10.9 278 4.9 101100 48
2011-03-17 07:57:54 51°15.403 2°54.39 11.6 337 4.9 101100 48
2011-03-17 07:57:58 51°15.416 2°54.387 11.1 285 4.9 101100 48
2011-03-17 07:58:04 51°15.434 2°54.382 10.3 336 4.9 101100 48
2011-03-17 07:58:10 51°15.453 2°54.378 11.1 282 4.9 101100 48
2011-03-17 07:58:14 51°15.465 2°54.374 11.6 338 4.9 101100 48
2011-03-17 07:58:18 51°15.478 2°54.371 10.1 280 4.9 101100 47
2011-03-17 07:58:24 51°15.497 2°54.368 10.1 336 4.9 101100 47
2011-03-17 07:58:30 51°15.515 2°54.364 11.1 281 4.9 101100 47
2011-03-17 07:58:34 51°15.528 2°54.362 10.6 337 4.9 101090 47
2011-03-17 07:58:40 51°15.547 2°54.358 11.4 284 4.9 101090 47
2011-03-17 07:58:45 51°15.562 2°54.356 11 336 4.9 101090 47
2011-03-17 07:58:50 51°15.578 2°54.353 11.7 280 4.9 101100 47
2011-03-17 07:58:54 51°15.591 2°54.351 12 338 4.9 101100 47
2011-03-17 07:59:00 51°15.61 2°54.348 12.1 279 5 101110 47
2011-03-17 07:59:05 51°15.625 2°54.345 12.4 337 5 101110 47
2011-03-17 07:59:10 51°15.641 2°54.343 11.5 278 4.9 101100 47
2011-03-17 07:59:14 51°15.654 2°54.34 10.7 339 4.9 101100 47
2011-03-17 07:59:20 51°15.673 2°54.337 11.5 284 5 101090 47
2011-03-17 07:59:25 51°15.688 2°54.334 10.8 337 5 101090 47
2011-03-17 07:59:30 51°15.704 2°54.331 11.8 281 4.9 101110 47
2011-03-17 07:59:34 51°15.717 2°54.329 10.5 338 4.9 101110 47
2011-03-17 07:59:38 51°15.73 2°54.326 11 280 4.9 101090 47
2011-03-17 07:59:44 51°15.749 2°54.323 10.7 337 4.9 101090 47
2011-03-17 07:59:50 51°15.768 2°54.319 10.2 286 4.9 101100 48
2011-03-17 07:59:54 51°15.78 2°54.317 10.3 336 4.9 101100 48
2011-03-17 07:59:58 51°15.793 2°54.314 10.9 287 4.9 101090 47
2011-03-17 08:00:04 51°15.812 2°54.31 10.1 337 4.9 101090 47
2011-03-17 08:00:10 51°15.831 2°54.306 11 286 4.9 101100 48
2011-03-17 08:00:14 51°15.843 2°54.303 11 335 4.9 101100 48
2011-03-17 08:00:18 51°15.856 2°54.3 9.7 280 4.9 101100 48
2011-03-17 08:00:24 51°15.875 2°54.296 10.7 337 4.9 101100 48
2011-03-17 08:00:30 51°15.894 2°54.293 10.8 283 5 101100 47
2011-03-17 08:00:34 51°15.906 2°54.29 10.5 338 5 101100 48
2011-03-17 08:00:38 51°15.919 2°54.288 10.9 285 5 101100 48
2011-03-17 08:00:44 51°15.938 2°54.284 11.2 337 5 101100 48
2011-03-17 08:00:50 51°15.957 2°54.28 10.2 280 5 101110 49
2011-03-17 08:00:54 51°15.969 2°54.277 10.6 336 4.9 101100 47
2011-03-17 08:01:00 51°15.989 2°54.273 11.9 286 4.9 101100 47
2011-03-17 08:01:05 51°16.005 2°54.271 10.8 337 4.9 101100 47
2011-03-17 08:01:10 51°16.02 2°54.268 10.3 283 5 101100 48
2011-03-17 08:01:14 51°16.032 2°54.266 10.2 336 5 101100 48
2011-03-17 08:01:20 51°16.049 2°54.263 10.3 280 5 101100 47
2011-03-17 08:01:25 51°16.062 2°54.261 9.7 337 5 101100 47
2011-03-17 08:01:30 51°16.074 2°54.26 8.8 284 4.9 101100 48
2011-03-17 08:01:34 51°16.083 2°54.26 9 334 4.9 101100 48
2011-03-17 08:01:38 51°16.092 2°54.261 8.7 282 5 101100 48
2011-03-17 08:01:45 51°16.106 2°54.264 8.3 330 5 101100 48
2011-03-17 08:01:50 51°16.116 2°54.267 7.9 285 4.9 101100 48
2011-03-17 08:01:54 51°16.123 2°54.27 8.5 329 4.9 101100 48
2011-03-17 08:01:58 51°16.13 2°54.273 7.3 281 4.9 101100 48
2011-03-17 08:02:04 51°16.14 2°54.279 6.9 328 4.9 101100 48
2011-03-17 08:02:10 51°16.149 2°54.285 7.1 280 4.9 101110 49
2011-03-17 08:02:14 51°16.156 2°54.289 7.2 329 4.9 101110 49
2011-03-17 08:02:18 51°16.162 2°54.293 7.5 286 4.9 101120 47
2011-03-17 08:02:24 51°16.17 2°54.3 7.1 326 4.9 101120 47
2011-03-17 08:02:30 51°16.178 2°54.306 6.7 284 4.9 101110 46
2011-03-17 08:02:34 51°16.184 2°54.311 7.7 326 4.9 101110 46
2011-03-17 08:02:38 51°16.189 2°54.315 6.9 279 4.9 101110 46
2011-03-17 08:02:44 51°16.197 2°54.322 7.1 327 4.9 101110 46
2011-03-17 08:02:50 51°16.205 2°54.328 6.6 279 4.9 101110 49
2011-03-17 08:02:54 51°16.21 2°54.332 7.1 327 4.9 101110 48
2011-03-17 08:02:58 51°16.215 2°54.336 7 280 4.9 101110 48
2011-03-17 08:03:04 51°16.223 2°54.343 6.8 326 4.9 101110 48
2011-03-17 08:03:10 51°16.23 2°54.349 7.1 281 4.9 101120 46
2011-03-17 08:03:14 51°16.234 2°54.353 6.8 328 4.9 101110 49
2011-03-17 08:03:20 51°16.24 2°54.359 6.3 280 4.9 101110 49
2011-03-17 08:03:25 51°16.245 2°54.363 7 325 4.9 101110 49
2011-03-17 08:03:30 51°16.25 2°54.367 6.2 285 4.9 101110 46
2011-03-17 08:03:34 51°16.253 2°54.37 6.2 322 4.9 101110 46
2011-03-17 08:03:40 51°16.258 2°54.375 6.5 283 4.9 101110 49
2011-03-17 08:03:45 51°16.261 2°54.379 6.1 320 4.9 101110 49
2011-03-17 08:03:50 51°16.264 2°54.383 5 281 4.9 101110 48
2011-03-17 08:03:54 51°16.266 2°54.387 5 315 4.9 101110 48
2011-03-17 08:03:58 51°16.267 2°54.39 4.9 280 4.9 101110 47
2011-03-17 08:04:05 51°16.269 2°54.394 4.5 34 4.9 101110 47
2011-03-17 08:04:10 51°16.271 2°54.398 5.1 284 4.9 101110 49
2011-03-17 08:04:14 51°16.271 2°54.4 5.2 36 4.9 101110 49
2011-03-17 08:04:18 51°16.272 2°54.402 5.4 284 4.9 101110 49
2011-03-17 08:04:24 51°16.272 2°54.405 5.2 36 4.9 101110 49
2011-03-17 08:04:30 51°16.273 2°54.408 4.7 286 4.9 101110 46
2011-03-17 08:04:34 51°16.273 2°54.41 4.7 238 4.9 101110 46
2011-03-17 08:04:38 51°16.273 2°54.412 5 282 4.9 101110 46
2011-03-17 08:04:44 51°16.273 2°54.416 6.1 241 4.9 101110 46
2011-03-17 08:04:50 51°16.273 2°54.418 5.1 280 5 101100 46
2011-03-17 08:04:54 51°16.273 2°54.42 5.8 242 5 101100 46
2011-03-17 08:04:58 51°16.273 2°54.422 5.5 284 5 101110 48
2011-03-17 08:05:04 51°16.272 2°54.425 5.2 245 5 101110 49
2011-03-17 08:05:09 51°16.272 2°54.428 5.3 286 5 101110 49
2011-03-17 08:05:14 51°16.272 2°54.43 5.4 245 5 101110 49
2011-03-17 08:05:18 51°16.272 2°54.432 4.4 285 5 101110 49
2011-03-17 08:05:24 51°16.271 2°54.434 4.8 244 5 101120 46
2011-03-17 08:05:30 51°16.271 2°54.437 6.7 284 5 101120 46
2011-03-17 08:05:34 51°16.271 2°54.439 4.8 245 5 101120 46
2011-03-17 08:05:40 51°16.27 2°54.441 4.6 280 5 101110 46
2011-03-17 08:05:45 51°16.269 2°54.444 4.8 247 5 101110 46
2011-03-17 08:05:50 51°16.269 2°54.446 4.7 285 5 101110 49
2011-03-17 08:05:54 51°16.268 2°54.447 5.3 244 5 101110 49
2011-03-17 08:05:58 51°16.268 2°54.449 6.3 279 5 101120 49
2011-03-17 08:06:04 51°16.267 2°54.452 4.7 245 5 101110 47
2011-03-17 08:06:10 51°16.266 2°54.455 5.5 286 5 101110 47
2011-03-17 08:06:14 51°16.266 2°54.456 5.5 249 5 101110 47
2011-03-17 08:06:18 51°16.265 2°54.458 5.5 279 5 101120 49
2011-03-17 08:06:24 51°16.265 2°54.46 5.9 248 5 101110 49
2011-03-17 08:06:30 51°16.264 2°54.463 6.8 286 5 101110 49
2011-03-17 08:06:34 51°16.264 2°54.464 5.2 246 5 101110 49
2011-03-17 08:06:38 51°16.263 2°54.466 6.1 287 5 101110 48
2011-03-17 08:06:44 51°16.263 2°54.468 5.5 249 5 101110 48
2011-03-17 08:06:50 51°16.262 2°54.471 5.2 285 5 101100 47
2011-03-17 08:06:54 51°16.261 2°54.472 5 244 5 101100 47
2011-03-17 08:06:58 51°16.261 2°54.474 5.8 282 5 101110 49
2011-03-17 08:07:04 51°16.26 2°54.476 5.5 250 5 101100 48
2011-03-17 08:07:09 51°16.259 2°54.478 5.7 284 5 101100 48
2011-03-17 08:07:14 51°16.259 2°54.479 4.2 250 5 101100 48
2011-03-17 08:07:18 51°16.259 2°54.481 4.4 280 5 101100 47
2011-03-17 08:07:24 51°16.258 2°54.483 5.4 248 5 101110 48
2011-03-17 08:07:29 51°16.257 2°54.485 5.7 282 5 101110 48
2011-03-17 08:07:34 51°16.257 2°54.486 5.2 248 5 101110 48
2011-03-17 08:07:38 51°16.256 2°54.488 5.6 286 5 101100 46
2011-03-17 08:07:44 51°16.256 2°54.489 5.6 247 5 101100 49
2011-03-17 08:07:50 51°16.255 2°54.491 5 283 5 101100 49
2011-03-17 08:07:54 51°16.254 2°54.493 4.8 248 5 101100 49
2011-03-17 08:08:00 51°16.254 2°54.494 5.1 280 5 101100 49
2011-03-17 08:08:04 51°16.254 2°54.496 5.7 248 5 101100 47
2011-03-17 08:08:10 51°16.253 2°54.497 4.9 283 5 101100 47
2011-03-17 08:08:14 51°16.253 2°54.498 6.2 245 5 101100 47
2011-03-17 08:08:18 51°16.252 2°54.5 5.6 246 5 101100 49
2011-03-17 08:08:24 51°16.251 2°54.502 5.6 247 5 101100 46
2011-03-17 08:08:30 51°16.251 2°54.503 5.8 286 5 101100 46
2011-03-17 08:08:34 51°16.25 2°54.504 6.1 249 5 101100 46
2011-03-17 08:08:38 51°16.25 2°54.506 5.1 287 5 101100 49
2011-03-17 08:08:44 51°16.249 2°54.507 5 245 5 101100 49
2011-03-17 08:08:50 51°16.248 2°54.509 5.2 287 5 101100 49
2011-03-17 08:08:54 51°16.248 2°54.51 4.4 243 5 101100 49
2011-03-17 08:08:58 51°16.247 2°54.511 5.5 282 5 101110 49
2011-03-17 08:09:04 51°16.247 2°54.513 5 246 5 101110 49
2011-03-17 08:09:10 51°16.246 2°54.514 5.7 281 5 101100 46
2011-03-17 08:09:14 51°16.245 2°54.516 7 248 5 101100 46
2011-03-17 08:09:18 51°16.245 2°54.517 5 283 5 101100 46
2011-03-17 08:09:24 51°16.244 2°54.518 5.9 243 5 101100 48
2011-03-17 08:09:29 51°16.244 2°54.519 6.4 285 5 101100 48
2011-03-17 08:09:34 51°16.243 2°54.521 6.7 244 5 101100 48
2011-03-17 08:09:38 51°16.242 2°54.522 6.2 284 5 101100 46
2011-03-17 08:09:44 51°16.242 2°54.523 6.5 243 5 101100 49
2011-03-17 08:09:49 51°16.241 2°54.525 6.1 279 5 101100 49
2011-03-17 08:09:54 51°16.24 2°54.526 6.3 245 5 101100 49
2011-03-17 08:09:58 51°16.24 2°54.527 6.5 286 5 101110 49
2011-03-17 08:10:04 51°16.239 2°54.528 6.6 245 5 101100 48
2011-03-17 08:10:10 51°16.238 2°54.53 6.6 281 5 101100 48
2011-03-17 08:10:14 51°16.238 2°54.531 5.3 250 5 101100 48
2011-03-17 08:10:20 51°16.237 2°54.532 6 279 5 101100 49
2011-03-17 08:10:24 51°16.236 2°54.533 4.7 251 5 101100 49
2011-03-17 08:10:30 51°16.236 2°54.534 5 280 5 101100 49
2011-03-17 08:10:34 51°16.235 2°54.535 4.5 246 5 101100 49
2011-03-17 08:10:38 51°16.234 2°54.536 5 284 5 101100 47
2011-03-17 08:10:44 51°16.234 2°54.537 6.1 247 5 101110 46
2011-03-17 08:10:50 51°16.233 2°54.539 5.3 280 5 101110 46
2011-03-17 08:10:54 51°16.232 2°54.539 4.7 252 5 101110 46
2011-03-17 08:10:58 51°16.232 2°54.54 5.1 286 5 101110 49
2011-03-17 08:11:04 51°16.231 2°54.542 5.2 248 5 101110 46
2011-03-17 08:11:10 51°16.23 2°54.543 4.9 280 5 101110 46
2011-03-17 08:11:14 51°16.23 2°54.544 5.1 246 5 101110 46
2011-03-17 08:11:18 51°16.229 2°54.544 4.9 283 5 101110 47
2011-03-17 08:11:24 51°16.228 2°54.546 5.6 248 5 101110 49
2011-03-17 08:11:29 51°16.228 2°54.547 5.8 282 5 101110 49
2011-03-17 08:11:34 51°16.227 2°54.548 5.7 250 5 101110 49
2011-03-17 08:11:38 51°16.226 2°54.548 6 280 5 101100 46
2011-03-17 08:11:44 51°16.225 2°54.549 5.8 252 5 101110 47
2011-03-17 08:11:49 51°16.225 2°54.551 4.5 280 5 101110 47
2011-03-17 08:11:54 51°16.224 2°54.551 5.6 251 5 101110 47
2011-03-17 08:11:58 51°16.224 2°54.552 4.6 286 5 101110 45
2011-03-17 08:12:04 51°16.223 2°54.553 4.5 252 5 101110 49
2011-03-17 08:12:10 51°16.222 2°54.555 5.1 284 5 101110 49
2011-03-17 08:12:14 51°16.221 2°54.555 5 252 5 101110 49
2011-03-17 08:12:20 51°16.221 2°54.556 4.6 -999 5 101110 46
2011-03-17 08:12:24 51°16.22 2°54.557 5.1 253 5 101110 46
2011-03-17 08:12:30 51°16.219 2°54.558 4.4 286 5 101110 46
2011-03-17 08:12:34 51°16.218 2°54.559 5 253 5 101110 46
2011-03-17 08:12:38 51°16.218 2°54.56 4.7 281 5 101120 46
2011-03-17 08:12:44 51°16.218 2°54.561 4.9 251 5 101110 48
2011-03-17 08:12:50 51°16.217 2°54.562 5.7 278 5 101110 48
2011-03-17 08:12:54 51°16.216 2°54.563 4 252 5 101110 48
2011-03-17 08:12:58 51°16.216 2°54.564 5 285 5 101110 49
2011-03-17 08:13:04 51°16.215 2°54.565 5.8 256 5 101110 49
2011-03-17 08:13:10 51°16.214 2°54.566 6 285 5 101110 49
2011-03-17 08:13:14 51°16.214 2°54.567 6.1 253 5 101110 49
2011-03-17 08:13:18 51°16.214 2°54.567 5.9 286 5 101110 49
2011-03-17 08:13:24 51°16.213 2°54.569 5.2 252 5 101110 49
2011-03-17 08:13:30 51°16.212 2°54.57 6.1 279 5 101110 49
2011-03-17 08:13:34 51°16.211 2°54.571 5.1 253 5 101110 49
2011-03-17 08:13:38 51°16.211 2°54.571 4.9 286 5 101110 47
2011-03-17 08:13:44 51°16.21 2°54.572 4.8 253 5 101110 49
2011-03-17 08:13:49 51°16.21 2°54.573 5.9 282 5 101110 49
2011-03-17 08:13:54 51°16.209 2°54.574 4.6 260 5 101110 49
2011-03-17 08:13:58 51°16.209 2°54.575 5.2 283 5 101110 46
2011-03-17 08:14:04 51°16.208 2°54.576 4.4 255 5 101110 49
2011-03-17 08:14:09 51°16.207 2°54.577 5.9 284 5 101110 49
2011-03-17 08:14:14 51°16.207 2°54.578 5.9 258 5 101110 49
2011-03-17 08:14:18 51°16.206 2°54.579 3.7 -999 5 101110 47
2011-03-17 08:14:24 51°16.206 2°54.58 2.5 260 5 101110 49
2011-03-17 08:14:30 51°16.205 2°54.581 3.5 282 5 101110 49
2011-03-17 08:14:34 51°16.204 2°54.582 4.5 259 5 101110 49
2011-03-17 08:14:40 51°16.203 2°54.583 4.6 286 5 101110 46
2011-03-17 08:14:45 51°16.202 2°54.584 5.7 260 5 101110 46
2011-03-17 08:14:50 51°16.202 2°54.585 4.4 286 5 101120 47
2011-03-17 08:14:54 51°16.201 2°54.585 5.1 267 5 101120 47
2011-03-17 08:14:58 51°16.201 2°54.587 5.1 279 5 101120 47
2011-03-17 08:15:04 51°16.2 2°54.588 6.3 255 5 101110 48
2011-03-17 08:15:10 51°16.199 2°54.589 5.7 281 5 101110 48
2011-03-17 08:15:14 51°16.198 2°54.59 5.5 256 5 101110 48
2011-03-17 08:15:18 51°16.198 2°54.591 7.6 278 5 101110 47
2011-03-17 08:15:24 51°16.197 2°54.591 7.8 256 5 101120 48
2011-03-17 08:15:30 51°16.196 2°54.593 6.2 280 5 101120 48
2011-03-17 08:15:34 51°16.196 2°54.594 7.2 257 5 101120 48
2011-03-17 08:15:38 51°16.195 2°54.594 6.4 287 5 101110 49
2011-03-17 08:15:44 51°16.194 2°54.597 6.8 260 5 101110 49
2011-03-17 08:15:50 51°16.193 2°54.6 7 285 5.1 101110 46
2011-03-17 08:15:54 51°16.192 2°54.604 4.8 262 5.1 101110 46
2011-03-17 08:15:58 51°16.191 2°54.607 4 285 5.1 101110 48
2011-03-17 08:16:04 51°16.188 2°54.612 4.2 263 5.1 101110 49
2011-03-17 08:16:09 51°16.186 2°54.617 3.8 284 5.1 101110 49
2011-03-17 08:16:14 51°16.184 2°54.622 4.1 270 5.1 101110 49
2011-03-17 08:16:18 51°16.181 2°54.626 5.2 286 5.1 101110 46
2011-03-17 08:16:24 51°16.177 2°54.632 5.8 39 5.1 101110 46
2011-03-17 08:16:29 51°16.173 2°54.636 5.6 75 5.1 101110 46
2011-03-17 08:16:34 51°16.169 2°54.64 3.8 33 5.1 101110 48
2011-03-17 08:16:38 51°16.166 2°54.643 3.5 74 5.1 101110 48
2011-03-17 08:16:44 51°16.16 2°54.646 4 30 5.1 101110 48
2011-03-17 08:16:50 51°16.154 2°54.648 3.1 75 5.1 101110 49
2011-03-17 08:16:54 51°16.15 2°54.649 2.2 36 5.1 101110 49
2011-03-17 08:17:00 51°16.144 2°54.648 0.3 82 5 101120 47
2011-03-17 08:17:04 51°16.14 2°54.648 0.9 35 5 101120 49
2011-03-17 08:17:10 51°16.134 2°54.646 0.2 80 5 101120 49
2011-03-17 08:17:14 51°16.131 2°54.643 3.6 32 5 101120 49
2011-03-17 08:17:18 51°16.127 2°54.641 3.2 80 5 101120 46
2011-03-17 08:17:24 51°16.121 2°54.635 2 44 5.2 101120 48
2011-03-17 08:17:30 51°16.114 2°54.628 3.1 41 5.2 101120 48
2011-03-17 08:17:34 51°16.11 2°54.622 3.4 35 5.2 101120 48
2011-03-17 08:17:38 51°16.106 2°54.615 3.6 27 5.2 101120 46
2011-03-17 08:17:44 51°16.101 2°54.603 3.6 26 5.2 101120 48
2011-03-17 08:17:50 51°16.096 2°54.59 4.7 20 5.2 101120 48
2011-03-17 08:17:54 51°16.093 2°54.58 5.6 16 5.2 101120 48
2011-03-17 08:17:58 51°16.091 2°54.57 4.8 12 5.2 101120 49
2011-03-17 08:18:04 51°16.087 2°54.554 4.9 16 5.2 101120 46
2011-03-17 08:18:10 51°16.085 2°54.536 5.7 16 5.2 101120 46
2011-03-17 08:18:14 51°16.083 2°54.524 4.9 14 5.2 101120 46
2011-03-17 08:18:18 51°16.082 2°54.512 6.3 -999 5.1 101120 47
2011-03-17 08:18:24 51°16.081 2°54.493 5.9 8 5.1 101120 49
2011-03-17 08:18:29 51°16.08 2°54.477 5.6 11 5.1 101120 49
2011-03-17 08:18:34 51°16.08 2°54.461 6.4 10 5.1 101120 49
2011-03-17 08:18:38 51°16.08 2°54.447 5.6 9 5.1 101110 49
2011-03-17 08:18:44 51°16.079 2°54.428 5.9 10 5.1 101110 46
2011-03-17 08:18:50 51°16.079 2°54.407 6 12 5.1 101110 46
2011-03-17 08:18:54 51°16.078 2°54.394 6.5 8 5.1 101110 46
2011-03-17 08:19:00 51°16.077 2°54.373 5.3 7 5.1 101110 49
2011-03-17 08:19:04 51°16.077 2°54.359 4.4 6 5.1 101110 47
2011-03-17 08:19:10 51°16.078 2°54.339 6.3 2 5.1 101110 47
2011-03-17 08:19:14 51°16.08 2°54.326 8 3 5.1 101110 47
2011-03-17 08:19:20 51°16.084 2°54.307 8.6 358 5.1 101110 49
2011-03-17 08:19:24 51°16.087 2°54.295 9.5 359 5.1 101110 48
2011-03-17 08:19:30 51°16.094 2°54.279 8.3 356 5.1 101110 48
2011-03-17 08:19:34 51°16.099 2°54.269 8.9 355 5.1 101110 48
2011-03-17 08:19:38 51°16.105 2°54.261 8.7 353 5.1 101100 47
2011-03-17 08:19:45 51°16.115 2°54.245 9.6 353 5.1 101100 47
2011-03-17 08:19:50 51°16.123 2°54.234 8.8 352 5 101090 47
2011-03-17 08:19:54 51°16.129 2°54.226 7.9 352 5 101090 47
2011-03-17 08:19:58 51°16.136 2°54.219 8.3 350 5 101100 47
2011-03-17 08:20:04 51°16.146 2°54.207 9.1 349 5 101100 48
2011-03-17 08:20:10 51°16.157 2°54.195 10.3 280 5 101100 48
2011-03-17 08:20:14 51°16.163 2°54.188 9.6 349 5 101100 48
2011-03-17 08:20:18 51°16.171 2°54.18 10.4 349 5 101090 48
2011-03-17 08:20:24 51°16.182 2°54.171 8.8 349 5 101110 47
2011-03-17 08:20:29 51°16.191 2°54.164 9.8 282 5 101110 47
2011-03-17 08:20:34 51°16.201 2°54.159 10 343 5 101110 47
2011-03-17 08:20:38 51°16.209 2°54.156 9.5 286 5 101110 47
2011-03-17 08:20:44 51°16.22 2°54.156 8.8 337 5 101110 47
2011-03-17 08:20:49 51°16.229 2°54.157 10.2 284 4.9 101090 49
2011-03-17 08:20:54 51°16.236 2°54.16 9.7 331 4.9 101090 49
2011-03-17 08:20:58 51°16.242 2°54.163 8.6 284 4.9 101100 49
2011-03-17 08:21:04 51°16.25 2°54.17 8.3 324 4.9 101100 47
2011-03-17 08:21:10 51°16.255 2°54.176 9.5 283 4.9 101100 47
2011-03-17 08:21:14 51°16.259 2°54.18 8 320 4.9 101100 47
2011-03-17 08:21:20 51°16.263 2°54.187 7.1 279 4.9 101110 47
2011-03-17 08:21:24 51°16.265 2°54.191 6.7 30 4.9 101110 47
2011-03-17 08:21:30 51°16.268 2°54.196 6.9 281 4.9 101110 47
2011-03-17 08:21:34 51°16.269 2°54.2 6.4 33 4.9 101110 47
2011-03-17 08:21:40 51°16.271 2°54.205 5.9 280 4.9 101120 48
2011-03-17 08:21:45 51°16.271 2°54.209 6.2 237 4.9 101120 48
2011-03-17 08:21:50 51°16.272 2°54.211 6.4 284 4.9 101100 46
2011-03-17 08:21:54 51°16.272 2°54.213 6.3 243 4.9 101100 46
2011-03-17 08:21:58 51°16.272 2°54.214 5.9 280 4.9 101110 46
2011-03-17 08:22:04 51°16.271 2°54.215 5.9 247 4.9 101110 46
2011-03-17 08:22:10 51°16.27 2°54.217 6.4 280 4.9 101110 46
2011-03-17 08:22:14 51°16.27 2°54.218 6.9 249 4.9 101110 46
2011-03-17 08:22:18 51°16.27 2°54.22 6 285 4.9 101110 49
2011-03-17 08:22:24 51°16.269 2°54.222 5.5 252 4.9 101110 49
2011-03-17 08:22:30 51°16.268 2°54.224 6.2 286 4.9 101110 47
2011-03-17 08:22:34 51°16.268 2°54.225 6.5 258 4.9 101110 47
2011-03-17 08:22:38 51°16.267 2°54.226 7.2 281 4.9 101110 46
2011-03-17 08:22:44 51°16.266 2°54.228 6.7 256 4.9 101110 46
2011-03-17 08:22:49 51°16.266 2°54.229 4.8 280 4.8 101110 46
2011-03-17 08:22:54 51°16.265 2°54.231 5.5 260 4.8 101110 46
2011-03-17 08:22:58 51°16.265 2°54.232 4.7 288 4.9 101120 48
2011-03-17 08:23:04 51°16.264 2°54.234 4.2 264 4.9 101120 46
2011-03-17 08:23:10 51°16.263 2°54.236 4.1 282 4.9 101120 46
2011-03-17 08:23:14 51°16.263 2°54.237 3.6 266 4.8 101120 49
2011-03-17 08:23:19 51°16.262 2°54.239 3.5 280 4.8 101120 49
2011-03-17 08:23:25 51°16.261 2°54.24 4.6 267 4.9 101110 46
2011-03-17 08:23:30 51°16.26 2°54.242 3.8 281 4.9 101110 46
2011-03-17 08:23:34 51°16.26 2°54.243 3.5 264 4.9 101110 46
2011-03-17 08:23:39 51°16.259 2°54.245 4.8 286 4.9 101120 46
2011-03-17 08:23:45 51°16.258 2°54.246 3.7 265 4.9 101130 46
2011-03-17 08:23:49 51°16.257 2°54.248 3.8 284 4.9 101130 46
2011-03-17 08:23:54 51°16.256 2°54.25 3.5 266 4.9 101130 46
2011-03-17 08:23:59 51°16.256 2°54.251 4.3 284 4.9 101120 48
2011-03-17 08:24:05 51°16.255 2°54.253 3.9 267 4.9 101120 48
2011-03-17 08:24:10 51°16.254 2°54.255 4.3 281 4.9 101120 48
2011-03-17 08:24:14 51°16.253 2°54.256 3.9 266 4.9 101120 48
2011-03-17 08:24:19 51°16.252 2°54.258 3.9 267 4.9 101120 46
2011-03-17 08:24:25 51°16.251 2°54.26 3.6 267 4.9 101120 46
2011-03-17 08:24:30 51°16.25 2°54.261 3.4 281 4.9 101130 46
2011-03-17 08:24:34 51°16.25 2°54.263 2.6 265 4.9 101130 46
2011-03-17 08:24:39 51°16.249 2°54.265 3.1 286 4.8 101130 49
2011-03-17 08:24:44 51°16.248 2°54.266 3.5 267 4.8 101130 49
2011-03-17 08:24:50 51°16.247 2°54.269 3.5 278 4.8 101130 46
2011-03-17 08:24:54 51°16.246 2°54.27 3.4 266 4.8 101130 46
2011-03-17 08:24:58 51°16.246 2°54.271 3.6 281 4.8 101130 47
2011-03-17 08:25:04 51°16.245 2°54.273 2.6 266 4.8 101130 47
2011-03-17 08:25:10 51°16.244 2°54.276 2.2 284 4.8 101140 49
2011-03-17 08:25:14 51°16.243 2°54.277 2.5 263 4.8 101130 45
2011-03-17 08:25:20 51°16.242 2°54.279 3.4 284 4.8 101130 45
2011-03-17 08:25:25 51°16.241 2°54.281 3.5 262 4.8 101130 45
2011-03-17 08:25:30 51°16.241 2°54.283 3.8 284 4.8 101120 47
2011-03-17 08:25:34 51°16.24 2°54.284 2 263 4.8 101130 50
2011-03-17 08:25:40 51°16.239 2°54.287 3.7 285 4.8 101130 50
2011-03-17 08:25:45 51°16.239 2°54.289 3.6 262 4.8 101130 50
2011-03-17 08:25:50 51°16.238 2°54.29 4.7 285 4.8 101130 47
2011-03-17 08:25:54 51°16.237 2°54.292 4.7 261 4.8 101130 47
2011-03-17 08:26:00 51°16.236 2°54.294 5.3 284 4.8 101120 49
2011-03-17 08:26:05 51°16.236 2°54.296 3 262 4.8 101120 49
2011-03-17 08:26:10 51°16.235 2°54.298 4.2 280 4.8 101130 49
2011-03-17 08:26:14 51°16.234 2°54.299 4 260 4.8 101130 49
2011-03-17 08:26:18 51°16.234 2°54.301 4.3 285 4.8 101130 48
2011-03-17 08:26:25 51°16.233 2°54.303 4 261 4.8 101130 48
2011-03-17 08:26:30 51°16.232 2°54.305 3.2 281 4.8 101130 47
2011-03-17 08:26:34 51°16.232 2°54.307 2.3 260 4.8 101130 47
2011-03-17 08:26:38 51°16.231 2°54.308 2.3 284 4.8 101130 48
2011-03-17 08:26:44 51°16.23 2°54.31 1.2 262 4.8 101130 48
2011-03-17 08:26:50 51°16.23 2°54.312 3.4 281 4.8 101130 50
2011-03-17 08:26:54 51°16.229 2°54.314 5.6 260 4.8 101130 50
2011-03-17 08:26:58 51°16.228 2°54.315 5.3 285 4.8 101130 46
2011-03-17 08:27:04 51°16.228 2°54.317 4.2 262 4.8 101130 46
2011-03-17 08:27:10 51°16.227 2°54.319 3.1 279 4.9 101130 49
2011-03-17 08:27:14 51°16.227 2°54.321 4.2 261 4.9 101130 49
2011-03-17 08:27:18 51°16.226 2°54.322 4.7 279 4.9 101130 49
2011-03-17 08:27:24 51°16.226 2°54.324 2.9 261 4.9 101130 49
2011-03-17 08:27:30 51°16.225 2°54.327 3.4 281 4.9 101130 49
2011-03-17 08:27:34 51°16.225 2°54.328 4.2 262 4.9 101120 50
2011-03-17 08:27:40 51°16.224 2°54.33 4.2 285 4.9 101120 50
2011-03-17 08:27:45 51°16.224 2°54.332 3.7 261 4.9 101120 50
2011-03-17 08:27:50 51°16.223 2°54.333 2.2 287 4.9 101130 47
2011-03-17 08:27:54 51°16.223 2°54.335 4.2 260 4.9 101130 47
2011-03-17 08:28:00 51°16.222 2°54.337 4.3 286 4.9 101120 45
2011-03-17 08:28:05 51°16.222 2°54.339 2.9 260 4.9 101120 45
2011-03-17 08:28:10 51°16.221 2°54.34 4.3 284 4.9 101130 46
2011-03-17 08:28:14 51°16.221 2°54.342 4.7 258 4.9 101130 46
2011-03-17 08:28:20 51°16.22 2°54.344 4.3 286 4.9 101120 49
2011-03-17 08:28:25 51°16.219 2°54.345 4.6 260 4.9 101120 49
2011-03-17 08:28:30 51°16.219 2°54.347 4.5 280 4.9 101120 47
2011-03-17 08:28:34 51°16.218 2°54.349 3.4 263 4.9 101120 47
2011-03-17 08:28:38 51°16.218 2°54.35 3.8 281 4.9 101120 50
2011-03-17 08:28:45 51°16.217 2°54.353 3.3 263 4.9 101120 50
2011-03-17 08:28:50 51°16.216 2°54.354 2.7 280 4.9 101120 46
2011-03-17 08:28:54 51°16.216 2°54.356 5 263 4.9 101120 46
2011-03-17 08:28:58 51°16.215 2°54.357 4.3 283 4.9 101130 49
2011-03-17 08:29:04 51°16.215 2°54.359 4.9 253 4.9 101130 49